COSMOS 2406 - Orbit

View from above orbital plane
View from above orbital plane
View from above satellite
View from above satellite

Ground track
Ground track

The orbit data is extracted from the following two-line orbital elements,

1 28352U 04021A   13137.06506615 -.00000214  00000-0 -92438-4 0   227
2 28352 071.0039 359.2825 0015333 201.4327 303.3813 14.11278976460311
Epoch (UTC): 17 May 2013 01:33:41
Eccentricity: 0.0015333
inclination: 71.0039°
perigee height: 844 km
apogee height: 866 km
right ascension of ascending node: 359.2825°
argument of perigee: 201.4327°
revolutions per day: 14.11278976
mean anomaly at epoch: 303.3813°
orbit number at epoch: 46031

The dashed part of the orbit path shows where the satellite is in the earth's shadow,  

Developed and maintained by Chris Peat, Heavens-Above GmbH. Please read the updated FAQ before sending e-mail. Imprint. DLR